Time,TemperatureF,DewpointF,PressureIn,WindDirection,WindDirectionDegrees,WindSpeedMPH,WindSpeedGustMPH,Humidity,HourlyPrecipIn,Conditions,Clouds,dailyrainin,SolarRadiationWatts/m^2,SoftwareType,DateUTC
2013-05-11 00:01:00,60.6,58.3,29.86,WSW,254,0.0,2.0,92,0.00,,---,0.44,0.00,VWS V14.00,2013-05-11 05:01:00,
2013-05-11 00:06:00,60.7,58.4,29.85,WSW,254,4.0,5.0,92,0.00,,---,0.00,0.00,VWS V14.00,2013-05-11 05:06:00,
2013-05-11 00:11:00,60.8,58.5,29.85,WSW,254,6.0,6.0,92,0.00,,---,0.00,0.00,VWS V14.00,2013-05-11 05:11:00,
2013-05-11 00:16:00,60.9,58.6,29.85,WSW,254,1.0,6.0,92,0.00,,---,0.00,0.00,VWS V14.00,2013-05-11 05:16:00,
2013-05-11 00:21:00,60.9,58.6,29.85,WSW,254,4.0,6.0,92,0.00,,---,0.00,0.00,VWS V14.00,2013-05-11 05:21:00,
2013-05-11 00:26:00,60.9,58.9,29.85,WSW,254,3.0,8.0,93,0.00,,---,0.00,0.00,VWS V14.00,2013-05-11 05:26:00,
2013-05-11 00:31:00,60.8,58.8,29.86,WSW,254,3.0,11.0,93,0.00,,---,0.00,0.00,VWS V14.00,2013-05-11 05:31:00,
2013-05-11 00:36:00,60.7,58.7,29.86,WSW,254,4.0,8.0,93,0.00,,---,0.00,0.00,VWS V14.00,2013-05-11 05:36:00,
2013-05-11 00:41:00,60.6,58.6,29.86,WSW,254,2.0,8.0,93,0.00,,---,0.00,0.00,VWS V14.00,2013-05-11 05:41:00,
2013-05-11 00:46:00,60.5,58.5,29.87,WSW,254,0.0,4.0,93,0.00,,---,0.00,0.00,VWS V14.00,2013-05-11 05:46:00,
2013-05-11 00:51:00,60.5,58.5,29.88,WSW,254,1.0,4.0,93,0.00,,---,0.00,0.00,VWS V14.00,2013-05-11 05:51:00,
2013-05-11 00:56:00,60.4,58.4,29.89,WSW,254,3.0,4.0,93,0.00,,---,0.00,0.00,VWS V14.00,2013-05-11 05:56:00,
2013-05-11 01:01:00,60.4,58.4,29.89,WSW,254,3.0,5.0,93,0.00,,---,0.00,0.00,VWS V14.00,2013-05-11 06:01:00,
2013-05-11 01:06:00,60.4,58.4,29.89,WSW,254,2.0,7.0,93,0.00,,---,0.00,0.00,VWS V14.00,2013-05-11 06:06:00,
2013-05-11 01:11:00,60.4,58.4,29.89,WSW,254,3.0,8.0,93,0.00,,---,0.00,0.00,VWS V14.00,2013-05-11 06:11:00,
2013-05-11 01:16:00,60.4,58.4,29.90,WSW,254,3.0,6.0,93,0.00,,---,0.00,0.00,VWS V14.00,2013-05-11 06:16:00,
2013-05-11 01:21:00,60.4,58.4,29.90,WSW,254,2.0,7.0,93,0.00,,---,0.00,0.00,VWS V14.00,2013-05-11 06:21:00,
2013-05-11 01:26:00,60.4,58.7,29.89,WSW,254,2.0,7.0,94,0.00,,---,0.00,0.00,VWS V14.00,2013-05-11 06:26:00,
2013-05-11 01:31:00,60.3,58.6,29.90,WSW,254,3.0,7.0,94,0.00,,---,0.00,0.00,VWS V14.00,2013-05-11 06:31:00,
2013-05-11 01:36:00,60.3,58.6,29.89,WSW,254,4.0,5.0,94,0.00,,---,0.00,0.00,VWS V14.00,2013-05-11 06:36:00,
2013-05-11 01:41:00,60.3,58.6,29.89,WSW,254,1.0,5.0,94,0.00,,---,0.00,0.00,VWS V14.00,2013-05-11 06:41:00,
2013-05-11 01:46:00,60.3,58.6,29.90,WSW,254,2.0,5.0,94,0.00,,---,0.00,0.00,VWS V14.00,2013-05-11 06:46:00,
2013-05-11 01:51:00,60.3,58.6,29.90,WSW,254,1.0,5.0,94,0.00,,---,0.00,0.00,VWS V14.00,2013-05-11 06:51:00,
2013-05-11 01:56:00,60.3,58.6,29.90,WSW,254,1.0,3.0,94,0.00,,---,0.00,0.00,VWS V14.00,2013-05-11 06:56:00,
2013-05-11 02:01:00,60.3,58.6,29.89,WSW,254,0.0,3.0,94,0.00,,---,0.00,0.00,VWS V14.00,2013-05-11 07:01:00,
2013-05-11 02:06:00,60.3,58.6,29.89,WSW,254,1.0,2.0,94,0.00,,---,0.00,0.00,VWS V14.00,2013-05-11 07:06:00,
2013-05-11 02:11:00,60.3,58.6,29.89,WSW,254,0.0,2.0,94,0.00,,---,0.00,0.00,VWS V14.00,2013-05-11 07:11:00,
2013-05-11 02:16:00,60.3,58.6,29.89,WSW,254,0.0,0.0,94,0.00,,---,0.00,0.00,VWS V14.00,2013-05-11 07:16:00,
2013-05-11 02:21:00,60.3,58.6,29.89,WSW,254,0.0,0.0,94,0.00,,---,0.00,0.00,VWS V14.00,2013-05-11 07:21:00,
2013-05-11 02:26:00,60.2,58.5,29.89,WSW,254,0.0,0.0,94,0.00,,---,0.00,0.00,VWS V14.00,2013-05-11 07:26:00,
2013-05-11 02:31:00,60.2,58.5,29.90,WSW,254,0.0,0.0,94,0.00,,---,0.00,0.00,VWS V14.00,2013-05-11 07:31:00,
2013-05-11 02:36:00,60.1,58.4,29.89,WSW,254,0.0,0.0,94,0.00,,---,0.00,0.00,VWS V14.00,2013-05-11 07:36:00,
2013-05-11 02:41:00,60.0,58.3,29.88,WSW,254,0.0,0.0,94,0.00,,---,0.00,0.00,VWS V14.00,2013-05-11 07:41:00,
2013-05-11 02:46:00,59.9,58.2,29.89,WSW,254,0.0,1.0,94,0.00,,---,0.00,0.00,VWS V14.00,2013-05-11 07:46:00,
2013-05-11 02:51:00,59.8,58.1,29.89,WSW,254,0.0,1.0,94,0.00,,---,0.00,0.00,VWS V14.00,2013-05-11 07:51:00,
2013-05-11 02:56:00,59.8,58.1,29.89,WSW,254,0.0,0.0,94,0.00,,---,0.00,0.00,VWS V14.00,2013-05-11 07:56:00,
2013-05-11 03:01:00,59.8,58.1,29.89,WSW,254,0.0,0.0,94,0.00,,---,0.00,0.00,VWS V14.00,2013-05-11 08:01:00,
2013-05-11 03:06:00,59.7,58.0,29.89,WSW,254,0.0,0.0,94,0.00,,---,0.00,0.00,VWS V14.00,2013-05-11 08:06:00,
2013-05-11 03:11:00,59.7,58.0,29.89,WSW,254,0.0,0.0,94,0.00,,---,0.00,0.00,VWS V14.00,2013-05-11 08:11:00,
2013-05-11 03:16:00,59.6,57.9,29.89,WSW,254,0.0,0.0,94,0.00,,---,0.00,0.00,VWS V14.00,2013-05-11 08:16:00,
2013-05-11 03:21:00,59.6,57.9,29.89,WSW,254,0.0,0.0,94,0.00,,---,0.00,0.00,VWS V14.00,2013-05-11 08:21:00,
2013-05-11 03:26:00,59.6,57.9,29.89,WSW,254,0.0,0.0,94,0.00,,---,0.00,0.00,VWS V14.00,2013-05-11 08:26:00,
2013-05-11 03:30:00,59.6,57.9,29.88,WSW,254,0.0,0.0,94,0.00,,---,0.00,0.00,VWS V14.00,2013-05-11 08:30:00,
2013-05-11 03:35:00,59.6,57.9,29.89,WSW,254,0.0,0.0,94,0.00,,---,0.00,0.00,VWS V14.00,2013-05-11 08:35:00,
2013-05-11 03:40:00,59.6,57.9,29.89,WSW,254,0.0,0.0,94,0.00,,---,0.00,0.00,VWS V14.00,2013-05-11 08:40:00,
2013-05-11 03:45:00,59.6,57.9,29.90,WSW,254,0.0,0.0,94,0.00,,---,0.00,0.00,VWS V14.00,2013-05-11 08:45:00,
2013-05-11 03:50:00,59.5,57.8,29.90,WSW,254,0.0,0.0,94,0.00,,---,0.00,0.00,VWS V14.00,2013-05-11 08:50:00,
2013-05-11 03:55:00,59.5,57.8,29.91,WSW,254,0.0,0.0,94,0.00,,---,0.00,0.00,VWS V14.00,2013-05-11 08:55:00,
2013-05-11 04:00:00,59.4,57.7,29.91,WSW,254,0.0,0.0,94,0.00,,---,0.00,0.00,VWS V14.00,2013-05-11 09:00:00,
2013-05-11 04:05:00,59.4,57.7,29.91,WSW,254,0.0,0.0,94,0.00,,---,0.00,0.00,VWS V14.00,2013-05-11 09:05:00,
2013-05-11 04:10:00,59.3,57.6,29.91,WSW,254,0.0,0.0,94,0.00,,---,0.00,0.00,VWS V14.00,2013-05-11 09:10:00,
2013-05-11 04:15:00,59.3,57.6,29.91,WSW,254,0.0,0.0,94,0.00,,---,0.00,0.00,VWS V14.00,2013-05-11 09:15:00,
2013-05-11 04:20:00,59.3,57.6,29.91,WSW,254,0.0,0.0,94,0.00,,---,0.00,0.00,VWS V14.00,2013-05-11 09:20:00,
2013-05-11 04:25:00,59.2,57.5,29.91,WSW,254,0.0,0.0,94,0.00,,---,0.00,0.00,VWS V14.00,2013-05-11 09:25:00,
2013-05-11 04:30:00,59.2,57.5,29.91,WSW,254,0.0,0.0,94,0.00,,---,0.00,0.00,VWS V14.00,2013-05-11 09:30:00,
2013-05-11 04:35:00,59.2,57.5,29.90,WSW,254,0.0,0.0,94,0.00,,---,0.00,0.00,VWS V14.00,2013-05-11 09:35:00,
2013-05-11 04:40:00,59.2,57.5,29.90,WSW,254,0.0,0.0,94,0.00,,---,0.00,0.00,VWS V14.00,2013-05-11 09:40:00,
2013-05-11 04:45:00,59.1,57.4,29.90,WSW,254,0.0,0.0,94,0.00,,---,0.00,0.00,VWS V14.00,2013-05-11 09:45:00,
2013-05-11 04:50:00,59.1,57.4,29.90,WSW,254,0.0,2.0,94,0.00,,---,0.00,0.00,VWS V14.00,2013-05-11 09:50:00,
2013-05-11 04:55:00,59.0,57.3,29.91,WSW,254,0.0,1.0,94,0.00,,---,0.00,0.00,VWS V14.00,2013-05-11 09:55:00,
2013-05-11 05:00:00,59.0,57.3,29.90,WSW,254,0.0,2.0,94,0.00,,---,0.00,0.00,VWS V14.00,2013-05-11 10:00:00,
2013-05-11 05:05:00,58.9,57.2,29.90,WSW,254,0.0,0.0,94,0.00,,---,0.00,0.00,VWS V14.00,2013-05-11 10:05:00,
2013-05-11 05:10:00,58.9,57.2,29.91,WSW,254,0.0,0.0,94,0.00,,---,0.00,0.00,VWS V14.00,2013-05-11 10:10:00,
2013-05-11 05:15:00,58.8,57.1,29.91,WSW,254,0.0,0.0,94,0.00,,---,0.00,0.00,VWS V14.00,2013-05-11 10:15:00,
2013-05-11 05:20:00,58.7,57.0,29.91,WSW,254,0.0,0.0,94,0.00,,---,0.00,0.00,VWS V14.00,2013-05-11 10:20:00,
2013-05-11 05:25:00,58.7,57.0,29.91,WSW,254,0.0,0.0,94,0.00,,---,0.00,0.00,VWS V14.00,2013-05-11 10:25:00,
2013-05-11 05:30:00,58.6,56.9,29.90,WSW,254,0.0,0.0,94,0.00,,---,0.00,0.00,VWS V14.00,2013-05-11 10:30:00,
2013-05-11 05:35:00,58.6,56.9,29.91,WSW,254,1.0,2.0,94,0.00,,---,0.00,0.00,VWS V14.00,2013-05-11 10:35:00,
2013-05-11 05:40:00,58.6,56.9,29.91,WSW,254,1.0,2.0,94,0.00,,---,0.00,0.00,VWS V14.00,2013-05-11 10:40:00,
2013-05-11 05:45:00,58.6,56.9,29.91,WSW,254,0.0,0.0,94,0.00,,---,0.00,0.00,VWS V14.00,2013-05-11 10:45:00,
2013-05-11 05:50:00,58.5,56.8,29.92,WSW,254,2.0,2.0,94,0.00,,---,0.00,0.00,VWS V14.00,2013-05-11 10:50:00,
2013-05-11 05:55:00,58.4,56.7,29.93,WSW,254,0.0,2.0,94,0.00,,---,0.00,0.00,VWS V14.00,2013-05-11 10:55:00,
2013-05-11 06:00:00,58.3,56.6,29.93,WSW,254,0.0,2.0,94,0.00,,---,0.00,0.00,VWS V14.00,2013-05-11 11:00:00,
2013-05-11 06:05:00,58.2,56.5,29.93,WSW,254,0.0,0.0,94,0.00,,---,0.00,0.00,VWS V14.00,2013-05-11 11:05:00,
2013-05-11 06:10:00,58.1,56.4,29.92,WSW,254,0.0,0.0,94,0.00,,---,0.00,0.00,VWS V14.00,2013-05-11 11:10:00,
2013-05-11 06:15:00,58.1,56.4,29.92,WSW,254,0.0,0.0,94,0.00,,---,0.00,0.00,VWS V14.00,2013-05-11 11:15:00,
2013-05-11 06:20:00,58.0,56.3,29.91,WSW,254,2.0,2.0,94,0.00,,---,0.00,0.00,VWS V14.00,2013-05-11 11:20:00,
2013-05-11 06:25:00,58.0,56.3,29.91,WSW,254,1.0,2.0,94,0.00,,---,0.00,0.00,VWS V14.00,2013-05-11 11:25:00,
2013-05-11 06:30:00,58.0,56.3,29.92,WSW,254,2.0,4.0,94,0.00,,---,0.00,0.00,VWS V14.00,2013-05-11 11:30:00,
2013-05-11 06:35:00,58.1,56.4,29.92,WSW,254,3.0,3.0,94,0.00,,---,0.00,0.00,VWS V14.00,2013-05-11 11:35:00,
2013-05-11 06:40:00,58.1,56.4,29.92,WSW,254,0.0,3.0,94,0.00,,---,0.00,0.00,VWS V14.00,2013-05-11 11:40:00,
2013-05-11 06:45:00,58.2,56.5,29.92,WSW,254,0.0,3.0,94,0.00,,---,0.00,0.00,VWS V14.00,2013-05-11 11:45:00,
2013-05-11 06:50:00,58.1,56.7,29.92,WSW,254,0.0,3.0,95,0.00,,---,0.00,5.00,VWS V14.00,2013-05-11 11:50:00,
2013-05-11 06:55:00,58.1,56.4,29.92,WSW,254,1.0,3.0,94,0.00,,---,0.00,9.00,VWS V14.00,2013-05-11 11:55:00,
2013-05-11 07:00:00,58.1,56.4,29.92,WSW,254,0.0,3.0,94,0.00,,---,0.00,12.00,VWS V14.00,2013-05-11 12:00:00,
2013-05-11 07:05:00,58.1,56.4,29.92,WSW,254,0.0,1.0,94,0.00,,---,0.00,23.00,VWS V14.00,2013-05-11 12:05:00,
2013-05-11 07:10:00,58.0,56.3,29.93,WSW,254,0.0,1.0,94,0.00,,---,0.00,39.00,VWS V14.00,2013-05-11 12:10:00,
2013-05-11 07:15:00,58.0,56.3,29.92,WSW,254,0.0,0.0,94,0.00,,---,0.00,37.00,VWS V14.00,2013-05-11 12:15:00,
2013-05-11 07:20:00,58.0,56.3,29.92,WSW,254,0.0,0.0,94,0.00,,---,0.00,33.00,VWS V14.00,2013-05-11 12:20:00,
2013-05-11 07:25:00,58.1,56.4,29.92,WSW,254,0.0,0.0,94,0.00,,---,0.00,37.00,VWS V14.00,2013-05-11 12:25:00,
2013-05-11 07:30:00,58.0,56.3,29.93,WSW,254,0.0,0.0,94,0.00,,---,0.00,42.00,VWS V14.00,2013-05-11 12:30:00,
2013-05-11 07:35:00,58.0,56.3,29.93,WSW,254,0.0,2.0,94,0.00,,---,0.00,49.00,VWS V14.00,2013-05-11 12:35:00,
2013-05-11 07:40:00,58.1,56.4,29.93,WSW,254,0.0,2.0,94,0.00,,---,0.00,54.00,VWS V14.00,2013-05-11 12:40:00,
2013-05-11 07:45:00,58.1,56.7,29.93,WSW,254,0.0,2.0,95,0.00,,---,0.00,76.00,VWS V14.00,2013-05-11 12:45:00,
2013-05-11 07:50:00,58.2,56.8,29.94,WSW,254,0.0,2.0,95,0.00,,---,0.00,84.00,VWS V14.00,2013-05-11 12:50:00,
2013-05-11 07:55:00,58.3,56.9,29.94,WSW,254,1.0,3.0,95,0.00,,---,0.00,81.00,VWS V14.00,2013-05-11 12:55:00,
2013-05-11 08:00:00,58.4,57.0,29.95,WSW,254,1.0,3.0,95,0.00,,---,0.00,74.00,VWS V14.00,2013-05-11 13:00:00,
2013-05-11 08:05:00,58.5,57.1,29.95,WSW,254,1.0,2.0,95,0.00,,---,0.00,192.00,VWS V14.00,2013-05-11 13:05:00,
2013-05-11 08:10:00,58.7,57.3,29.95,WSW,254,0.0,3.0,95,0.00,,---,0.00,206.00,VWS V14.00,2013-05-11 13:10:00,
2013-05-11 08:15:00,58.9,57.5,29.96,WSW,251,0.0,3.0,95,0.00,,---,0.00,216.00,VWS V14.00,2013-05-11 13:15:00,
2013-05-11 08:20:00,59.1,57.7,29.96,WSW,251,0.0,3.0,95,0.00,,---,0.00,188.00,VWS V14.00,2013-05-11 13:20:00,
2013-05-11 08:25:00,59.3,57.9,29.96,WSW,251,0.0,2.0,95,0.00,,---,0.00,148.00,VWS V14.00,2013-05-11 13:25:00,
2013-05-11 08:30:00,59.5,58.1,29.96,WSW,251,2.0,2.0,95,0.00,,---,0.00,163.00,VWS V14.00,2013-05-11 13:30:00,
2013-05-11 08:35:00,59.7,58.3,29.96,WSW,251,1.0,3.0,95,0.00,,---,0.00,206.00,VWS V14.00,2013-05-11 13:35:00,
2013-05-11 08:40:00,60.0,58.6,29.96,WSW,251,4.0,5.0,95,0.00,,---,0.00,276.00,VWS V14.00,2013-05-11 13:40:00,
2013-05-11 08:45:00,60.2,58.8,29.95,WSW,251,3.0,4.0,95,0.00,,---,0.00,230.00,VWS V14.00,2013-05-11 13:45:00,
2013-05-11 08:50:00,60.5,58.8,29.96,WSW,251,2.0,6.0,94,0.00,,---,0.00,297.00,VWS V14.00,2013-05-11 13:50:00,
2013-05-11 08:55:00,60.9,58.9,29.96,WSW,251,0.0,5.0,93,0.00,,---,0.00,269.00,VWS V14.00,2013-05-11 13:55:00,
2013-05-11 09:00:00,61.4,59.1,29.96,WSW,251,2.0,7.0,92,0.00,,---,0.00,206.00,VWS V14.00,2013-05-11 14:00:00,
2013-05-11 09:05:00,61.7,58.7,29.97,WSW,251,0.0,11.0,90,0.00,,---,0.00,100.00,VWS V14.00,2013-05-11 14:05:00,
2013-05-11 09:10:00,62.1,58.8,29.96,WSW,251,3.0,11.0,89,0.00,,---,0.00,425.00,VWS V14.00,2013-05-11 14:10:00,
2013-05-11 09:15:00,62.7,59.1,29.97,WSW,251,1.0,5.0,88,0.00,,---,0.00,446.00,VWS V14.00,2013-05-11 14:15:00,
2013-05-11 09:20:00,63.3,59.4,29.97,WSW,251,1.0,8.0,87,0.00,,---,0.00,473.00,VWS V14.00,2013-05-11 14:20:00,
2013-05-11 09:25:00,63.9,59.6,29.97,WSW,251,2.0,7.0,86,0.00,,---,0.00,478.00,VWS V14.00,2013-05-11 14:25:00,
2013-05-11 09:30:00,64.3,59.4,29.97,WSW,251,5.0,7.0,84,0.00,,---,0.00,462.00,VWS V14.00,2013-05-11 14:30:00,
2013-05-11 09:35:00,64.8,59.5,29.97,WSW,251,1.0,3.0,83,0.00,,---,0.00,531.00,VWS V14.00,2013-05-11 14:35:00,
2013-05-11 09:40:00,65.2,59.6,29.97,WSW,251,5.0,5.0,82,0.00,,---,0.00,534.00,VWS V14.00,2013-05-11 14:40:00,
2013-05-11 09:45:00,65.6,59.6,29.97,WSW,251,0.0,5.0,81,0.00,,---,0.00,550.00,VWS V14.00,2013-05-11 14:45:00,
2013-05-11 09:50:00,66.0,59.3,29.97,SW,229,3.0,10.0,79,0.00,,---,0.00,570.00,VWS V14.00,2013-05-11 14:50:00,
2013-05-11 09:55:00,66.3,58.9,29.97,WSW,237,0.0,12.0,77,0.00,,---,0.00,592.00,VWS V14.00,2013-05-11 14:55:00,
2013-05-11 10:00:00,66.7,59.3,29.97,WSW,237,0.0,12.0,77,0.00,,---,0.00,589.00,VWS V14.00,2013-05-11 15:00:00,
2013-05-11 10:05:00,67.0,59.6,29.98,WSW,237,0.0,5.0,77,0.00,,---,0.00,610.00,VWS V14.00,2013-05-11 15:05:00,
2013-05-11 10:10:00,67.2,59.0,29.98,WSW,237,2.0,6.0,75,0.00,,---,0.00,482.00,VWS V14.00,2013-05-11 15:10:00,
2013-05-11 10:15:00,67.4,59.6,29.98,WSW,237,1.0,5.0,76,0.00,,---,0.00,742.00,VWS V14.00,2013-05-11 15:15:00,
2013-05-11 10:20:00,67.7,59.1,29.98,WSW,237,4.0,7.0,74,0.00,,---,0.00,793.00,VWS V14.00,2013-05-11 15:20:00,
2013-05-11 10:25:00,67.8,59.2,29.98,WSW,237,1.0,7.0,74,0.00,,---,0.00,793.00,VWS V14.00,2013-05-11 15:25:00,
2013-05-11 10:30:00,67.9,59.3,29.98,WSW,237,0.0,7.0,74,0.00,,---,0.00,473.00,VWS V14.00,2013-05-11 15:30:00,
2013-05-11 10:35:00,68.3,60.1,29.98,WSW,237,2.0,4.0,75,0.00,,---,0.00,944.00,VWS V14.00,2013-05-11 15:35:00,
2013-05-11 10:40:00,68.8,59.4,29.98,WSW,237,3.0,7.0,72,0.00,,---,0.00,615.00,VWS V14.00,2013-05-11 15:40:00,
2013-05-11 10:45:00,69.2,59.4,29.98,WSW,237,0.0,6.0,71,0.00,,---,0.00,608.00,VWS V14.00,2013-05-11 15:45:00,
2013-05-11 10:50:00,69.1,58.9,29.98,WSW,237,0.0,7.0,70,0.00,,---,0.00,881.00,VWS V14.00,2013-05-11 15:50:00,
2013-05-11 10:55:00,69.4,60.4,29.98,WSW,237,2.0,5.0,73,0.00,,---,0.00,972.00,VWS V14.00,2013-05-11 15:55:00,
2013-05-11 11:00:00,69.8,59.2,29.98,WSW,237,0.0,7.0,69,0.00,,---,0.00,555.00,VWS V14.00,2013-05-11 16:00:00,
2013-05-11 11:05:00,70.1,60.3,29.98,WSW,237,3.0,6.0,71,0.00,,---,0.00,441.00,VWS V14.00,2013-05-11 16:05:00,
2013-05-11 11:10:00,70.3,59.7,29.98,WSW,237,4.0,7.0,69,0.00,,---,0.00,404.00,VWS V14.00,2013-05-11 16:10:00,
2013-05-11 11:15:00,70.4,59.3,29.98,WSW,246,0.0,11.0,68,0.00,,---,0.00,909.00,VWS V14.00,2013-05-11 16:15:00,
2013-05-11 11:20:00,70.8,59.7,29.98,WSW,246,3.0,11.0,68,0.00,,---,0.00,531.00,VWS V14.00,2013-05-11 16:20:00,
2013-05-11 11:25:00,70.9,59.4,29.98,WSW,246,4.0,6.0,67,0.00,,---,0.00,503.00,VWS V14.00,2013-05-11 16:25:00,
2013-05-11 11:30:00,70.7,58.8,29.98,West,264,5.0,11.0,66,0.00,,---,0.00,499.00,VWS V14.00,2013-05-11 16:30:00,
2013-05-11 11:35:00,70.5,58.6,29.97,West,264,1.0,8.0,66,0.00,,---,0.00,415.00,VWS V14.00,2013-05-11 16:35:00,
2013-05-11 11:40:00,70.6,58.3,29.98,West,264,5.0,12.0,65,0.00,,---,0.00,693.00,VWS V14.00,2013-05-11 16:40:00,
2013-05-11 11:45:00,70.7,58.8,29.97,West,264,2.0,7.0,66,0.00,,---,0.00,693.00,VWS V14.00,2013-05-11 16:45:00,
2013-05-11 11:50:00,70.9,59.0,29.97,West,264,5.0,7.0,66,0.00,,---,0.00,357.00,VWS V14.00,2013-05-11 16:50:00,
2013-05-11 11:55:00,70.8,58.0,29.97,West,265,7.0,10.0,64,0.00,,---,0.00,373.00,VWS V14.00,2013-05-11 16:55:00,
2013-05-11 12:00:00,70.6,58.3,29.97,West,265,2.0,11.0,65,0.00,,---,0.00,826.00,VWS V14.00,2013-05-11 17:00:00,
2013-05-11 12:05:00,70.9,58.6,29.97,West,265,1.0,8.0,65,0.00,,---,0.00,626.00,VWS V14.00,2013-05-11 17:05:00,
2013-05-11 12:10:00,71.3,58.5,29.97,West,265,4.0,10.0,64,0.00,,---,0.00,944.00,VWS V14.00,2013-05-11 17:10:00,
2013-05-11 12:15:00,71.5,58.7,29.96,West,269,3.0,8.0,64,0.00,,---,0.00,944.00,VWS V14.00,2013-05-11 17:15:00,
2013-05-11 12:20:00,71.7,58.9,29.96,West,278,0.0,14.0,64,0.00,,---,0.00,944.00,VWS V14.00,2013-05-11 17:20:00,
2013-05-11 12:25:00,71.7,58.9,29.97,West,278,6.0,12.0,64,0.00,,---,0.00,944.00,VWS V14.00,2013-05-11 17:25:00,
2013-05-11 12:30:00,72.0,60.0,29.97,West,278,5.0,12.0,66,0.00,,---,0.00,1257.00,VWS V14.00,2013-05-11 17:30:00,
2013-05-11 12:35:00,72.3,59.5,29.96,West,278,2.0,11.0,64,0.00,,---,0.00,1165.00,VWS V14.00,2013-05-11 17:35:00,
2013-05-11 12:40:00,72.4,58.7,29.96,West,278,5.0,11.0,62,0.00,,---,0.00,422.00,VWS V14.00,2013-05-11 17:40:00,
2013-05-11 12:45:00,72.3,58.1,29.95,West,279,0.0,11.0,61,0.00,,---,0.00,506.00,VWS V14.00,2013-05-11 17:45:00,
2013-05-11 12:50:00,72.3,58.6,29.96,WNW,285,4.0,14.0,62,0.00,,---,0.00,1099.00,VWS V14.00,2013-05-11 17:50:00,
2013-05-11 12:55:00,72.8,60.4,29.96,WNW,285,8.0,13.0,65,0.00,,---,0.00,1032.00,VWS V14.00,2013-05-11 17:55:00,
2013-05-11 13:00:00,72.8,58.1,29.95,WNW,284,2.0,14.0,60,0.00,,---,0.00,1104.00,VWS V14.00,2013-05-11 18:00:00,
2013-05-11 13:05:00,73.1,59.3,29.95,WNW,284,0.0,5.0,62,0.00,,---,0.00,1063.00,VWS V14.00,2013-05-11 18:05:00,
2013-05-11 13:10:00,73.5,58.3,29.95,WNW,284,5.0,13.0,59,0.00,,---,0.00,1111.00,VWS V14.00,2013-05-11 18:10:00,
2013-05-11 13:15:00,73.9,58.2,29.95,WNW,288,2.0,15.0,58,0.00,,---,0.00,1158.00,VWS V14.00,2013-05-11 18:15:00,
2013-05-11 13:20:00,73.7,58.0,29.95,WNW,288,4.0,15.0,58,0.00,,---,0.00,1230.00,VWS V14.00,2013-05-11 18:20:00,
2013-05-11 13:25:00,74.0,58.3,29.95,WNW,292,2.0,14.0,58,0.00,,---,0.00,1225.00,VWS V14.00,2013-05-11 18:25:00,
2013-05-11 13:30:00,74.6,58.4,29.95,WNW,292,8.0,14.0,57,0.00,,---,0.00,1269.00,VWS V14.00,2013-05-11 18:30:00,
2013-05-11 13:35:00,74.8,58.6,29.95,WNW,292,5.0,9.0,57,0.00,,---,0.00,327.00,VWS V14.00,2013-05-11 18:35:00,
2013-05-11 13:40:00,74.8,58.1,29.95,WNW,292,4.0,11.0,56,0.00,,---,0.00,1259.00,VWS V14.00,2013-05-11 18:40:00,
2013-05-11 13:45:00,74.9,59.1,29.95,WNW,291,8.0,13.0,58,0.00,,---,0.00,1303.00,VWS V14.00,2013-05-11 18:45:00,
2013-05-11 13:50:00,75.2,57.9,29.95,WNW,291,7.0,13.0,55,0.00,,---,0.00,1225.00,VWS V14.00,2013-05-11 18:50:00,
2013-05-11 13:55:00,75.6,58.3,29.95,WNW,287,8.0,9.0,55,0.00,,---,0.00,309.00,VWS V14.00,2013-05-11 18:55:00,
2013-05-11 14:00:00,75.5,58.2,29.95,WNW,287,6.0,9.0,55,0.00,,---,0.00,308.00,VWS V14.00,2013-05-11 19:00:00,
2013-05-11 14:05:00,75.4,57.6,29.95,WNW,287,5.0,9.0,54,0.00,,---,0.00,1257.00,VWS V14.00,2013-05-11 19:05:00,
2013-05-11 14:10:00,75.2,56.9,29.95,WNW,286,8.0,13.0,53,0.00,,---,0.00,907.00,VWS V14.00,2013-05-11 19:10:00,
2013-05-11 14:15:00,75.2,56.4,29.95,WNW,286,4.0,12.0,52,0.00,,---,0.00,1146.00,VWS V14.00,2013-05-11 19:15:00,
2013-05-11 14:20:00,75.4,57.6,29.95,WNW,290,9.0,12.0,54,0.00,,---,0.00,1176.00,VWS V14.00,2013-05-11 19:20:00,
2013-05-11 14:25:00,75.8,58.0,29.95,WNW,289,6.0,8.0,54,0.00,,---,0.00,1160.00,VWS V14.00,2013-05-11 19:25:00,
2013-05-11 14:30:00,76.0,57.1,29.94,WNW,288,2.0,8.0,52,0.00,,---,0.00,290.00,VWS V14.00,2013-05-11 19:30:00,
2013-05-11 14:35:00,75.9,57.6,29.94,WNW,288,2.0,6.0,53,0.00,,---,0.00,1041.00,VWS V14.00,2013-05-11 19:35:00,
2013-05-11 14:40:00,76.3,55.8,29.94,WNW,288,7.0,11.0,49,0.00,,---,0.00,1034.00,VWS V14.00,2013-05-11 19:40:00,
2013-05-11 14:45:00,76.6,56.6,29.94,WNW,288,6.0,8.0,50,0.00,,---,0.00,1107.00,VWS V14.00,2013-05-11 19:45:00,
2013-05-11 14:50:00,76.8,56.2,29.94,WNW,288,5.0,8.0,49,0.00,,---,0.00,1067.00,VWS V14.00,2013-05-11 19:50:00,
2013-05-11 14:55:00,77.1,55.9,29.94,WNW,289,2.0,12.0,48,0.00,,---,0.00,1076.00,VWS V14.00,2013-05-11 19:55:00,
2013-05-11 15:00:00,77.5,56.3,29.94,WNW,289,1.0,12.0,48,0.00,,---,0.00,1028.00,VWS V14.00,2013-05-11 20:00:00,
2013-05-11 15:05:00,77.9,56.1,29.94,West,268,10.0,11.0,47,0.00,,---,0.00,1063.00,VWS V14.00,2013-05-11 20:05:00,
2013-05-11 15:10:00,77.5,55.7,29.94,West,268,4.0,11.0,47,0.00,,---,0.00,251.00,VWS V14.00,2013-05-11 20:10:00,
2013-05-11 15:15:00,77.6,55.8,29.93,West,268,1.0,6.0,47,0.00,,---,0.00,983.00,VWS V14.00,2013-05-11 20:15:00,
2013-05-11 15:20:00,78.1,56.2,29.93,West,268,3.0,7.0,47,0.00,,---,0.00,963.00,VWS V14.00,2013-05-11 20:20:00,
2013-05-11 15:25:00,78.5,54.8,29.93,West,268,8.0,11.0,44,0.00,,---,0.00,939.00,VWS V14.00,2013-05-11 20:25:00,
2013-05-11 15:30:00,78.7,55.0,29.92,West,268,4.0,11.0,44,0.00,,---,0.00,979.00,VWS V14.00,2013-05-11 20:30:00,
2013-05-11 15:35:00,78.7,55.0,29.93,West,268,4.0,11.0,44,0.00,,---,0.00,981.00,VWS V14.00,2013-05-11 20:35:00,
2013-05-11 15:40:00,78.5,54.2,29.93,West,268,1.0,11.0,43,0.00,,---,0.00,983.00,VWS V14.00,2013-05-11 20:40:00,
2013-05-11 15:45:00,78.5,54.8,29.92,West,268,4.0,12.0,44,0.00,,---,0.00,960.00,VWS V14.00,2013-05-11 20:45:00,
2013-05-11 15:50:00,78.4,53.4,29.93,West,270,9.0,12.0,42,0.00,,---,0.00,946.00,VWS V14.00,2013-05-11 20:50:00,
2013-05-11 15:55:00,78.0,54.3,29.92,West,276,5.0,12.0,44,0.00,,---,0.00,949.00,VWS V14.00,2013-05-11 20:55:00,
2013-05-11 16:00:00,78.1,53.8,29.92,West,279,5.0,13.0,43,0.00,,---,0.00,900.00,VWS V14.00,2013-05-11 21:00:00,
2013-05-11 16:05:00,78.0,53.7,29.92,WSW,258,5.0,10.0,43,0.00,,---,0.00,204.00,VWS V14.00,2013-05-11 21:05:00,
2013-05-11 16:10:00,77.9,54.3,29.92,WSW,258,2.0,10.0,44,0.00,,---,0.00,863.00,VWS V14.00,2013-05-11 21:10:00,
2013-05-11 16:15:00,78.0,53.1,29.92,WSW,256,4.0,10.0,42,0.00,,---,0.00,803.00,VWS V14.00,2013-05-11 21:15:00,
2013-05-11 16:20:00,78.0,53.7,29.92,WSW,255,6.0,10.0,43,0.00,,---,0.00,817.00,VWS V14.00,2013-05-11 21:20:00,
2013-05-11 16:25:00,78.2,52.6,29.92,WSW,255,6.0,11.0,41,0.00,,---,0.00,795.00,VWS V14.00,2013-05-11 21:25:00,
2013-05-11 16:30:00,78.4,52.8,29.92,WSW,255,4.0,11.0,41,0.00,,---,0.00,775.00,VWS V14.00,2013-05-11 21:30:00,
2013-05-11 16:35:00,78.7,52.4,29.92,WSW,254,3.0,7.0,40,0.00,,---,0.00,772.00,VWS V14.00,2013-05-11 21:35:00,
2013-05-11 16:40:00,78.9,51.9,29.92,SW,226,10.0,13.0,39,0.00,,---,0.00,751.00,VWS V14.00,2013-05-11 21:40:00,
2013-05-11 16:45:00,78.3,50.6,29.92,SSW,200,4.0,11.0,38,0.00,,---,0.00,770.00,VWS V14.00,2013-05-11 21:45:00,
2013-05-11 16:50:00,77.8,52.2,29.92,SSW,200,3.0,11.0,41,0.00,,---,0.00,125.00,VWS V14.00,2013-05-11 21:50:00,
2013-05-11 16:55:00,77.5,52.6,29.92,SSW,200,2.0,11.0,42,0.00,,---,0.00,712.00,VWS V14.00,2013-05-11 21:55:00,
2013-05-11 17:00:00,77.7,51.5,29.91,SSW,200,4.0,11.0,40,0.00,,---,0.00,717.00,VWS V14.00,2013-05-11 22:00:00,
2013-05-11 17:05:00,78.0,52.4,29.91,SSW,200,0.0,10.0,41,0.00,,---,0.00,680.00,VWS V14.00,2013-05-11 22:05:00,
2013-05-11 17:10:00,78.1,51.2,29.91,SSW,200,1.0,10.0,39,0.00,,---,0.00,668.00,VWS V14.00,2013-05-11 22:10:00,
2013-05-11 17:15:00,78.2,50.5,29.92,SSW,200,5.0,6.0,38,0.00,,---,0.00,118.00,VWS V14.00,2013-05-11 22:15:00,
2013-05-11 17:20:00,77.9,51.0,29.92,SSW,201,0.0,6.0,39,0.00,,---,0.00,113.00,VWS V14.00,2013-05-11 22:20:00,
2013-05-11 17:25:00,77.8,50.2,29.91,SSW,201,4.0,9.0,38,0.00,,---,0.00,636.00,VWS V14.00,2013-05-11 22:25:00,
2013-05-11 17:30:00,77.9,51.0,29.91,SSW,201,6.0,9.0,39,0.00,,---,0.00,612.00,VWS V14.00,2013-05-11 22:30:00,
2013-05-11 17:35:00,78.1,51.2,29.91,SSW,201,5.0,6.0,39,0.00,,---,0.00,610.00,VWS V14.00,2013-05-11 22:35:00,
2013-05-11 17:40:00,78.1,49.7,29.91,SSW,201,5.0,9.0,37,0.00,,---,0.00,555.00,VWS V14.00,2013-05-11 22:40:00,
2013-05-11 17:45:00,78.0,49.7,29.91,SSW,200,4.0,8.0,37,0.00,,---,0.00,538.00,VWS V14.00,2013-05-11 22:45:00,
2013-05-11 17:50:00,77.8,50.2,29.91,SSW,200,1.0,8.0,38,0.00,,---,0.00,524.00,VWS V14.00,2013-05-11 22:50:00,
2013-05-11 17:55:00,77.9,49.6,29.91,SSW,200,0.0,10.0,37,0.00,,---,0.00,501.00,VWS V14.00,2013-05-11 22:55:00,
2013-05-11 18:00:00,78.0,49.7,29.91,SSW,200,4.0,10.0,37,0.00,,---,0.00,485.00,VWS V14.00,2013-05-11 23:00:00,
2013-05-11 18:05:00,78.1,49.7,29.92,SSW,200,2.0,4.0,37,0.00,,---,0.00,462.00,VWS V14.00,2013-05-11 23:05:00,
2013-05-11 18:09:00,78.2,49.1,29.91,SSW,200,0.0,6.0,36,0.00,,---,0.00,434.00,VWS V14.00,2013-05-11 23:09:00,
2013-05-11 18:14:00,78.3,49.2,29.92,SSW,200,2.0,5.0,36,0.00,,---,0.00,394.00,VWS V14.00,2013-05-11 23:14:00,
2013-05-11 18:19:00,78.3,50.6,29.92,SSW,200,1.0,5.0,38,0.00,,---,0.00,381.00,VWS V14.00,2013-05-11 23:19:00,
2013-05-11 18:24:00,78.2,49.8,29.92,SSW,200,3.0,7.0,37,0.00,,---,0.00,346.00,VWS V14.00,2013-05-11 23:24:00,
2013-05-11 18:29:00,77.9,48.8,29.92,SSW,200,1.0,7.0,36,0.00,,---,0.00,288.00,VWS V14.00,2013-05-11 23:29:00,
2013-05-11 18:34:00,77.5,49.2,29.91,SSW,200,3.0,5.0,37,0.00,,---,0.00,315.00,VWS V14.00,2013-05-11 23:34:00,
2013-05-11 18:39:00,77.4,49.8,29.92,SSW,200,0.0,5.0,38,0.00,,---,0.00,288.00,VWS V14.00,2013-05-11 23:39:00,
2013-05-11 18:44:00,77.3,49.0,29.93,SSW,200,3.0,3.0,37,0.00,,---,0.00,253.00,VWS V14.00,2013-05-11 23:44:00,
2013-05-11 18:49:00,77.1,48.8,29.93,SSW,200,0.0,4.0,37,0.00,,---,0.00,299.00,VWS V14.00,2013-05-11 23:49:00,
2013-05-11 18:54:00,77.0,48.8,29.92,SSW,200,0.0,1.0,37,0.00,,---,0.00,297.00,VWS V14.00,2013-05-11 23:54:00,
2013-05-11 18:59:00,77.0,49.5,29.93,SSW,200,3.0,4.0,38,0.00,,---,0.00,199.00,VWS V14.00,2013-05-11 23:59:00,
2013-05-11 19:04:00,76.8,48.6,29.93,SSW,200,1.0,5.0,37,0.00,,---,0.00,128.00,VWS V14.00,2013-05-12 00:04:00,
2013-05-11 19:09:00,76.5,48.3,29.93,SSW,200,1.0,5.0,37,0.00,,---,0.00,109.00,VWS V14.00,2013-05-12 00:09:00,
2013-05-11 19:14:00,76.2,48.0,29.94,SSW,200,1.0,3.0,37,0.00,,---,0.00,121.00,VWS V14.00,2013-05-12 00:14:00,
2013-05-11 19:19:00,75.9,49.2,29.94,SSW,200,1.0,3.0,39,0.00,,---,0.00,105.00,VWS V14.00,2013-05-12 00:19:00,
2013-05-11 19:24:00,75.6,47.5,29.94,SSW,200,0.0,1.0,37,0.00,,---,0.00,111.00,VWS V14.00,2013-05-12 00:24:00,
2013-05-11 19:29:00,75.3,48.0,29.94,SSW,200,0.0,1.0,38,0.00,,---,0.00,67.00,VWS V14.00,2013-05-12 00:29:00,
2013-05-11 19:34:00,74.9,48.3,29.94,SSW,200,0.0,1.0,39,0.00,,---,0.00,69.00,VWS V14.00,2013-05-12 00:34:00,
2013-05-11 19:39:00,74.7,49.5,29.94,SSW,200,0.0,2.0,41,0.00,,---,0.00,53.00,VWS V14.00,2013-05-12 00:39:00,
2013-05-11 19:44:00,74.3,49.1,29.95,SSW,200,0.0,0.0,41,0.00,,---,0.00,39.00,VWS V14.00,2013-05-12 00:44:00,
2013-05-11 19:49:00,74.1,49.6,29.95,SSW,200,0.0,0.0,42,0.00,,---,0.00,30.00,VWS V14.00,2013-05-12 00:49:00,
2013-05-11 19:54:00,73.9,50.0,29.96,SSW,200,0.0,0.0,43,0.00,,---,0.00,23.00,VWS V14.00,2013-05-12 00:54:00,
2013-05-11 19:59:00,73.6,50.4,29.96,SSW,200,0.0,0.0,44,0.00,,---,0.00,16.00,VWS V14.00,2013-05-12 00:59:00,
2013-05-11 20:04:00,73.3,49.5,29.96,SSW,200,0.0,0.0,43,0.00,,---,0.00,11.00,VWS V14.00,2013-05-12 01:04:00,
2013-05-11 20:09:00,73.0,50.4,29.96,SSW,200,0.0,0.0,45,0.00,,---,0.00,7.00,VWS V14.00,2013-05-12 01:09:00,
2013-05-11 20:14:00,72.7,50.8,29.96,SSW,200,0.0,0.0,46,0.00,,---,0.00,0.00,VWS V14.00,2013-05-12 01:14:00,
2013-05-11 20:19:00,72.4,50.5,29.96,SSW,200,0.0,0.0,46,0.00,,---,0.00,0.00,VWS V14.00,2013-05-12 01:19:00,
2013-05-11 20:24:00,72.1,50.2,29.97,SSW,200,0.0,0.0,46,0.00,,---,0.00,0.00,VWS V14.00,2013-05-12 01:24:00,
2013-05-11 20:29:00,71.8,49.9,29.97,SSW,200,0.0,0.0,46,0.00,,---,0.00,0.00,VWS V14.00,2013-05-12 01:29:00,
2013-05-11 20:34:00,71.4,49.6,29.97,SSW,200,0.0,0.0,46,0.00,,---,0.00,0.00,VWS V14.00,2013-05-12 01:34:00,
2013-05-11 20:39:00,71.0,49.8,29.97,SSW,200,0.0,0.0,47,0.00,,---,0.00,0.00,VWS V14.00,2013-05-12 01:39:00,
2013-05-11 20:44:00,70.8,51.3,29.97,SSW,200,0.0,0.0,50,0.00,,---,0.00,0.00,VWS V14.00,2013-05-12 01:44:00,
2013-05-11 20:49:00,70.5,51.5,29.97,SSW,200,0.0,0.0,51,0.00,,---,0.00,0.00,VWS V14.00,2013-05-12 01:49:00,
2013-05-11 20:54:00,70.1,51.2,29.98,SSW,200,0.0,0.0,51,0.00,,---,0.00,0.00,VWS V14.00,2013-05-12 01:54:00,
2013-05-11 20:59:00,69.7,50.8,29.98,SSW,200,0.0,0.0,51,0.00,,---,0.00,0.00,VWS V14.00,2013-05-12 01:59:00,
2013-05-11 21:04:00,69.3,51.5,29.98,SSW,200,0.0,0.0,53,0.00,,---,0.00,0.00,VWS V14.00,2013-05-12 02:04:00,
2013-05-11 21:09:00,68.7,50.4,29.98,SSW,200,2.0,3.0,52,0.00,,---,0.00,0.00,VWS V14.00,2013-05-12 02:09:00,
2013-05-11 21:14:00,68.2,49.9,29.99,SSW,200,0.0,2.0,52,0.00,,---,0.00,0.00,VWS V14.00,2013-05-12 02:14:00,
2013-05-11 21:19:00,67.9,50.2,29.99,SSW,200,0.0,2.0,53,0.00,,---,0.00,0.00,VWS V14.00,2013-05-12 02:19:00,
2013-05-11 21:24:00,67.8,50.6,29.99,SSW,200,0.0,0.0,54,0.00,,---,0.00,0.00,VWS V14.00,2013-05-12 02:24:00,
2013-05-11 21:29:00,67.6,50.4,30.00,SSW,200,0.0,0.0,54,0.00,,---,0.00,0.00,VWS V14.00,2013-05-12 02:29:00,
2013-05-11 21:34:00,67.5,49.8,30.00,SSW,200,0.0,0.0,53,0.00,,---,0.00,0.00,VWS V14.00,2013-05-12 02:34:00,
2013-05-11 21:39:00,67.3,49.1,29.99,SSW,200,0.0,0.0,52,0.00,,---,0.00,0.00,VWS V14.00,2013-05-12 02:39:00,
2013-05-11 21:44:00,67.1,49.4,29.99,SSW,200,0.0,0.0,53,0.00,,---,0.00,0.00,VWS V14.00,2013-05-12 02:44:00,
2013-05-11 21:49:00,67.0,49.8,29.99,SSW,200,0.0,0.0,54,0.00,,---,0.00,0.00,VWS V14.00,2013-05-12 02:49:00,
2013-05-11 21:54:00,67.0,50.3,30.00,SSW,200,0.0,0.0,55,0.00,,---,0.00,0.00,VWS V14.00,2013-05-12 02:54:00,
2013-05-11 21:59:00,66.8,49.6,30.00,SSW,200,0.0,0.0,54,0.00,,---,0.00,0.00,VWS V14.00,2013-05-12 02:59:00,
2013-05-11 22:04:00,66.8,49.6,30.00,SSW,200,0.0,0.0,54,0.00,,---,0.00,0.00,VWS V14.00,2013-05-12 03:04:00,
2013-05-11 22:09:00,66.7,49.5,29.99,SSW,200,0.0,0.0,54,0.00,,---,0.00,0.00,VWS V14.00,2013-05-12 03:09:00,
2013-05-11 22:14:00,66.6,50.0,29.99,SSW,200,0.0,0.0,55,0.00,,---,0.00,0.00,VWS V14.00,2013-05-12 03:14:00,
2013-05-11 22:19:00,66.6,50.0,29.99,SSW,200,0.0,1.0,55,0.00,,---,0.00,0.00,VWS V14.00,2013-05-12 03:19:00,
2013-05-11 22:24:00,66.5,50.3,29.99,SSW,200,0.0,0.0,56,0.00,,---,0.00,0.00,VWS V14.00,2013-05-12 03:24:00,
2013-05-11 22:29:00,66.4,49.8,29.99,SSW,200,0.0,0.0,55,0.00,,---,0.00,0.00,VWS V14.00,2013-05-12 03:29:00,
2013-05-11 22:34:00,66.4,50.7,29.99,SSW,200,0.0,0.0,57,0.00,,---,0.00,0.00,VWS V14.00,2013-05-12 03:34:00,
2013-05-11 22:39:00,66.3,50.2,29.99,SSW,200,0.0,0.0,56,0.00,,---,0.00,0.00,VWS V14.00,2013-05-12 03:39:00,
2013-05-11 22:44:00,66.2,50.5,29.99,SSW,200,0.0,0.0,57,0.00,,---,0.00,0.00,VWS V14.00,2013-05-12 03:44:00,
2013-05-11 22:49:00,66.1,50.0,30.00,SSW,200,0.0,0.0,56,0.00,,---,0.00,0.00,VWS V14.00,2013-05-12 03:49:00,
2013-05-11 22:54:00,65.9,50.2,30.00,SSW,200,0.0,0.0,57,0.00,,---,0.00,0.00,VWS V14.00,2013-05-12 03:54:00,
2013-05-11 22:59:00,65.8,50.2,30.00,SSW,200,0.0,1.0,57,0.00,,---,0.00,0.00,VWS V14.00,2013-05-12 03:59:00,
2013-05-11 23:01:00,65.7,50.1,30.00,SSW,200,0.0,1.0,57,0.00,,---,0.00,0.00,VWS V14.00,2013-05-12 04:01:00,
2013-05-11 23:06:00,65.6,50.0,30.00,SSW,200,1.0,2.0,57,0.00,,---,0.00,0.00,VWS V14.00,2013-05-12 04:06:00,
2013-05-11 23:11:00,65.5,50.3,30.00,SSW,200,2.0,3.0,58,0.00,,---,0.00,0.00,VWS V14.00,2013-05-12 04:11:00,
2013-05-11 23:16:00,65.4,49.8,29.99,SSW,200,0.0,2.0,57,0.00,,---,0.00,0.00,VWS V14.00,2013-05-12 04:16:00,
2013-05-11 23:21:00,65.3,49.7,30.00,SSW,200,0.0,2.0,57,0.00,,---,0.00,0.00,VWS V14.00,2013-05-12 04:21:00,
2013-05-11 23:26:00,65.2,50.1,30.00,SSW,200,0.0,0.0,58,0.00,,---,0.00,0.00,VWS V14.00,2013-05-12 04:26:00,
2013-05-11 23:31:00,65.2,50.1,30.00,SSW,200,2.0,2.0,58,0.00,,---,0.00,0.00,VWS V14.00,2013-05-12 04:31:00,
2013-05-11 23:36:00,65.2,49.6,30.00,SSW,200,2.0,4.0,57,0.00,,---,0.00,0.00,VWS V14.00,2013-05-12 04:36:00,
2013-05-11 23:41:00,65.3,49.7,30.01,SSW,200,2.0,4.0,57,0.00,,---,0.00,0.00,VWS V14.00,2013-05-12 04:41:00,
2013-05-11 23:46:00,65.5,49.4,30.01,SSW,200,1.0,5.0,56,0.00,,---,0.00,0.00,VWS V14.00,2013-05-12 04:46:00,
2013-05-11 23:51:00,65.5,49.9,30.01,SSW,200,1.0,5.0,57,0.00,,---,0.00,0.00,VWS V14.00,2013-05-12 04:51:00,
2013-05-11 23:56:00,65.4,49.8,30.01,SSW,200,0.0,1.0,57,0.00,,---,0.00,0.00,VWS V14.00,2013-05-12 04:56:00,